Flag for Canada Weather past 2 weeks in Creston, British Columbia, Canada

Now
32 °F

Chilly.


Feels Like: 32 °F
Forecast: 33 / 39 °F
Wind: No wind

Location: Creston

Current Time: Dec 17, 2014 at 8:01:33 PM

Latest Report: Dec 17, 2014 at 7:00 PM


Visibility: N/A

Pressure: 30.06 "Hg

Humidity: 96%

Dew point: 31 °F

Location of CrestonLocation

Historic Weather in Creston — Graph

°F

Creston temperature yesterday

Maximum temperature yesterday: 33 °F (at 12:00 AM)
Minimum temperature yesterday: 28 °F (at 8:00 AM)
Average temperature yesterday: 31 °F

Past Weeks' High & Low Weather Summary

 TemperatureHumidityPressure
High45 °F (Dec 12, 4:00 AM)100% (Dec 6, 12:00 AM)30.43 "Hg (Dec 6, 12:00 AM)
Low17 °F (Dec 2, 10:00 PM)58% (Dec 3, 2:00 PM)29.57 "Hg (Dec 11, 7:00 PM)
Average34 °F89%30.11 "Hg
* Reported Dec 2 7:00 PM — Dec 17 7:00 PM, Creston, Weather by CustomWeather, © 2014

Note: Actual official high and low records may vary slightly from our data, if they occured in-between our weather recording intervals... More about our weather records

Advertising

Creston weather history for previous 24 hours

 ConditionsComfort  
Time TempWeatherWind HumidityBarometerVisibility
7:00 PM
Dec 17
32 °FChilly.No wind96%30.06 "HgN/A
6:00 PM33 °FChilly.1 mph90%30.05 "HgN/A
5:00 PM33 °FChilly.1 mph88%30.05 "HgN/A
4:00 PM34 °FChilly.1 mph89%30.05 "HgN/A
3:00 PM34 °FChilly.2 mph85%30.04 "HgN/A
2:00 PM35 °FChilly.2 mph85%30.04 "HgN/A
1:00 PM35 °FChilly.2 mph79%30.06 "HgN/A
12:00 PM34 °FChilly.No wind91%30.07 "HgN/A
11:00 AM32 °FChilly.3 mph93%30.09 "HgN/A
10:00 AM31 °FChilly.No wind94%30.08 "HgN/A
9:00 AM31 °FChilly.No wind95%30.08 "HgN/A
8:00 AM30 °FChilly.No wind97%30.09 "HgN/A
7:00 AM30 °FChilly.1 mph97%30.09 "HgN/A
6:00 AM30 °FChilly.1 mph98%30.09 "HgN/A
5:00 AM30 °FChilly.No wind96%30.08 "HgN/A
4:00 AM30 °FChilly.1 mph96%30.09 "HgN/A
3:00 AM30 °FChilly.1 mph96%30.09 "HgN/A
2:00 AM30 °FChilly.1 mph97%30.09 "HgN/A
1:00 AM30 °FChilly.1 mph98%30.10 "HgN/A
12:00 AM30 °FChilly.No wind97%30.10 "HgN/A
11:00 PM
Dec 16
29 °FChilly.1 mph97%30.10 "HgN/A
10:00 PM31 °FChilly.2 mph93%30.10 "HgN/A
9:00 PM30 °FChilly.1 mph90%30.10 "HgN/A
8:00 PM33 °FChilly.1 mph76%30.09 "HgN/A
Weather by CustomWeather, © 2014

See weather overviewHow to use our weather pages